Regional Weather Roundup
Issued by NWS Sterling, VA

Home | Current Version | Previous Version | Graphics & Text | Print | Product List | Glossary On
Versions: 1 2 3 4 5 6 7 8 9 10 11 12 13 14 15 16 17 18 19 20 21 22 23 24 25 26 27 28 29 30 31 32 33 34 35 36 37 38 39 40 41 42 43 44 45 46 47 48 49 50
000
ASUS41 KLWX 300110
RWRLWX

REGIONAL WEATHER ROUNDUP
NATIONAL WEATHER SERVICE BALTIMORE MD/WASHINGTON DC
900 PM EDT WED JUL 29 2015

Note: "FAIR" indicates few or no clouds below 12,000 feet
with no significant weather and/or obstructions to visibility.
 TC=TEMPERATURE CELSIUS

 * =Non NWS site. Station does not report precipitation (e.g. rain,
    snow, etc.), thunder, or fog.

DCZ001-MDZ009-015-VAZ040>042-051-053>054-300200-
WASHINGTON METRO

CITY           SKY/WX    TMP DP  RH WIND       PRES   REMARKS
WASHINGTON NAT PTCLDY    86  71  60 S10       29.95R HX  91
DULLES         MOCLDY    81  72  74 S5        29.95S
ANDREWS AFB    CLEAR     80  72  76 S8        29.95S
FT BELVOIR     CLEAR     80  72  76 SE2       29.95S
QUANTICO       PTCLDY    83  70  64 SW6       29.96R
COLLEGE PARK*  CLEAR     84  70  61 S3        29.94S
LEESBURG*      CLEAR     82  77  83 S6        29.96S HX  91
MANASSAS*      PTCLDY    79  75  89 SE3       29.95
GAITHERSBURG*  CLEAR     81  72  74 S6        30.00R

$$

MDZ006>007-011-014-300200-
BALTIMORE METRO

CITY           SKY/WX    TMP DP  RH WIND       PRES   REMARKS
BWI AIRPORT    MOCLDY    80  75  84 S3        29.94S
MD SCIENCE CTR   N/A     79  76  90 MISG      29.94S
MARTIN STATE   PTCLDY    82  79  89 S10       29.95S HX  93
ANNAPOLIS      PTCLDY    81  73  76 S9        29.94F
FORT MEADE*    PTCLDY    75  73  94 CALM      29.97S

$$

MDZ012-015-019>023-300200-
MARYLAND EASTERN SHORE

CITY           SKY/WX    TMP DP  RH WIND       PRES   REMARKS
OCEAN CITY     PTCLDY    79  73  82 S3        29.99R
SALISBURY      PTCLDY    77  71  82 S6        29.98R
BAY BRIDGE AP*   N/A     81  72  74 S7        29.95S
CAMBRIDGE*     PTCLDY    81  72  74 SE5       29.97R
EASTON*        CLEAR     86  73  66 S6        29.99S HX  93

$$

MDZ017>025-300200-
SOUTHERN MARYLAND

CITY           SKY/WX    TMP DP  RH WIND       PRES   REMARKS
PATUXENT RIVER MOCLDY    80  73  79 S6        29.96R
ST INIGOES     CLEAR     81  71  71 S5        29.96R
LEONARDTOWN*   CLEAR     79  72  78 CALM      29.98S

$$

MDZ003>005-300200-
NORTH CENTRAL MARYLAND

CITY           SKY/WX    TMP DP  RH WIND       PRES   REMARKS
FREDERICK*     CLEAR     81  75  83 S5        29.97S
HAGERSTOWN APT PTCLDY    84  73  69 S7        29.95R HX  90
WESTMINSTER*   PTCLDY    81  75  83 SE5       29.97S

$$

MDZ501>502-300200-
WESTERN MARYLAND

CITY           SKY/WX    TMP DP  RH WIND       PRES   REMARKS
OAKLAND*       NOT AVBL
CUMBERLAND*    PTCLDY    79  73  83 S3        29.98F

$$

VAZ025>031-300200-
SHENANDOAH VALLEY

CITY           SKY/WX    TMP DP  RH WIND       PRES   REMARKS
WINCHESTER*    PTCLDY    81  73  78 SE3       29.96R
FRONT ROYAL*   FAIR      79  73  83 CALM      29.94S
LURAY*         FAIR      82  75  78 SW5       29.97R
NEW MARKET*    FAIR      78  74  87 CALM      29.95R
STAUNTON*      PTCLDY    82  74  75 S3        30.01R
WAYNESBORO*    FAIR      78  73  85 S8        30.01S

$$

WVZ021-048>050-054>055-300200-
EASTERN WEST VIRGINIA PANHANDLE

CITY           SKY/WX    TMP DP  RH WIND       PRES   REMARKS
MARTINSBURG    CLEAR     79  74  84 S6        29.95R
PETERSBURG*    CLOUDY   N/A N/A N/A CALM      29.97S

$$

VAZ036>039-050-300200-
CENTRAL FOOTHILLS

CITY           SKY/WX    TMP DP  RH WIND       PRES   REMARKS
CHARLOTTESVILL MOCLDY    81  74  79 S3        29.97R
CULPEPER*      CLEAR     77  74  92 CALM      29.96S
ORANGE*        PTCLDY    81  75  83 SE3       29.98R
GORDONSVILLE*  FAIR      77  75  94 CALM      29.96R
WARRENTON*     FAIR      79  75  87 SE5       29.95S

$$

VAZ055>057-300200-
NORTH AND CENTRAL PIEDMONT

CITY           SKY/WX    TMP DP  RH WIND       PRES   REMARKS
FREDERICKSBRG* CLEAR     81  75  83 SE3       29.95R
STAFFORD*      CLEAR     77  71  80 SE3       30.00R

$$

NCZ024-NYZ072-PAZ021-071-VAZ022-071-300200-
OTHER REGIONAL OBSERVATIONS

CITY           SKY/WX    TMP DP  RH WIND       PRES   REMARKS
NEW YORK CITY  CLEAR     86  71  60 VRB3      29.94S HX  91
PHILADELPHIA   PTCLDY    83  72  69 S8        29.95S
PITTSBURGH     MOCLDY    83  69  62 W5        29.94S
ROANOKE        PTCLDY    81  73  76 E7        30.02S
RICHMOND       PTCLDY    82  74  76 S3        29.97R
RALEIGH        PTCLDY    83  69  62 SE5       29.98R

$$

ANZ530>537-300200-
MARINE OBSERVATIONS

STATION/POSITION TIME  TEMP    WIND        PRES
                       AIR SEA DIR/SP/G
                 (UTC) (F)     (DEG/KT/KT) (MB)
THOMAS PT LIGHT  NOT AVBL
BALT KEY BRIDGE  0000   81                   N/A
COVE POINT       0000   82                   N/A
LEWISETTA        0000   83 85                N/A
SOLOMONS ISLAND  0000      82                N/A

$$




USA.gov is the U.S. government's official web portal to all federal, state and local government web resources and services.